TAP9001 EGPF-EGPB

Flight info

Callsign TAP9001
Flight time 0h 46m
Altitude 31000
Route PTH P600 ASNUD DCT MONAV DCT BEKET DCT GAVEL Y905 WAFIL
Aircraft A320/M-SDE3FGHIRWY/LB1

Departure

Time 2026-04-22 13:12
Airport Glasgow Airport (EGPF)

Arrival

Time 2026-04-22 13:59
Airport Sumburgh Airport (EGPB)
Time Latitude Longitude Altitude Speed Heading
2026-04-22 12:42 55.86474 -4.43626 29 ft 0 kts 253°
2026-04-22 13:04 55.86474 -4.43624 29 ft 2 kts 253°
2026-04-22 13:05 55.86481 -4.43581 29 ft 4 kts 256°
2026-04-22 13:05 55.86486 -4.43519 29 ft 4 kts 283°
2026-04-22 13:05 55.86481 -4.43496 29 ft 4 kts 331°
2026-04-22 13:05 55.86477 -4.43491 29 ft 0 kts 343°
2026-04-22 13:07 55.86508 -4.43508 29 ft 7 kts 343°
2026-04-22 13:08 55.86584 -4.43548 29 ft 12 kts 343°
2026-04-22 13:08 55.86660 -4.43587 29 ft 11 kts 344°
2026-04-22 13:08 55.86727 -4.43624 29 ft 10 kts 335°
2026-04-22 13:08 55.86725 -4.43769 29 ft 14 kts 242°
2026-04-22 13:09 55.86663 -4.43890 29 ft 13 kts 227°
2026-04-22 13:09 55.86605 -4.43999 29 ft 12 kts 226°
2026-04-22 13:09 55.86550 -4.44100 29 ft 11 kts 226°
2026-04-22 13:09 55.86501 -4.44192 29 ft 10 kts 226°
2026-04-22 13:10 55.86457 -4.44273 29 ft 9 kts 226°
2026-04-22 13:10 55.86417 -4.44347 29 ft 8 kts 226°
2026-04-22 13:10 55.86372 -4.44432 29 ft 10 kts 226°
2026-04-22 13:10 55.86326 -4.44517 29 ft 12 kts 226°
2026-04-22 13:11 55.86259 -4.44647 29 ft 15 kts 234°
2026-04-22 13:11 55.86293 -4.44783 29 ft 13 kts 315°
2026-04-22 13:11 55.86356 -4.44874 29 ft 11 kts 354°
2026-04-22 13:11 55.86441 -4.44735 29 ft 33 kts 47°
2026-04-22 13:12 55.86769 -4.44122 29 ft 101 kts 46°
2026-04-22 13:12 55.87373 -4.42990 69 ft 148 kts 48°
2026-04-22 13:12 55.88056 -4.41663 804 ft 145 kts 48°
2026-04-22 13:12 55.88756 -4.40336 1530 ft 154 kts 51°
2026-04-22 13:13 55.89567 -4.38836 1846 ft 181 kts 50°
2026-04-22 13:13 55.90497 -4.37102 2241 ft 206 kts 49°
2026-04-22 13:13 55.91543 -4.35151 2731 ft 229 kts 49°
2026-04-22 13:13 55.92668 -4.33055 3523 ft 241 kts 50°
2026-04-22 13:14 55.93866 -4.30843 4277 ft 254 kts 51°
2026-04-22 13:14 55.95118 -4.28550 5164 ft 261 kts 50°
2026-04-22 13:14 55.96404 -4.26207 6050 ft 267 kts 51°
2026-04-22 13:14 55.97713 -4.23829 6990 ft 269 kts 51°
2026-04-22 13:15 55.99033 -4.21423 7878 ft 273 kts 51°
2026-04-22 13:15 56.00372 -4.18970 8719 ft 278 kts 51°
2026-04-22 13:15 56.01733 -4.16467 9535 ft 284 kts 51°
2026-04-22 13:15 56.03105 -4.13942 10336 ft 290 kts 50°
2026-04-22 13:16 56.04539 -4.11302 10853 ft 306 kts 49°
2026-04-22 13:16 56.06076 -4.08454 11182 ft 327 kts 51°
2026-04-22 13:16 56.07677 -4.05484 11842 ft 335 kts 50°
2026-04-22 13:16 56.09312 -4.02461 12603 ft 340 kts 49°
2026-04-22 13:17 56.10969 -3.99397 13356 ft 345 kts 48°
2026-04-22 13:17 56.12651 -3.96277 14102 ft 349 kts 49°
2026-04-22 13:17 56.14351 -3.93124 14774 ft 354 kts 49°
2026-04-22 13:17 56.16075 -3.89927 15469 ft 358 kts 49°
2026-04-22 13:18 56.17815 -3.86693 16151 ft 362 kts 49°
2026-04-22 13:18 56.19570 -3.83421 16823 ft 366 kts 49°
2026-04-22 13:18 56.21317 -3.80153 17489 ft 369 kts 49°
2026-04-22 13:18 56.23105 -3.76801 18153 ft 373 kts 49°
2026-04-22 13:19 56.24907 -3.73414 18814 ft 376 kts 49°
2026-04-22 13:19 56.26722 -3.70003 19408 ft 378 kts 48°
2026-04-22 13:19 56.28547 -3.66576 20000 ft 381 kts 49°
2026-04-22 13:19 56.30391 -3.63109 20549 ft 385 kts 48°
2026-04-22 13:20 56.32248 -3.59617 21141 ft 388 kts 49°
2026-04-22 13:20 56.34121 -3.56081 21673 ft 392 kts 47°
2026-04-22 13:20 56.35985 -3.52551 22252 ft 395 kts 48°
2026-04-22 13:20 56.37893 -3.48930 22770 ft 400 kts 48°
2026-04-22 13:21 56.39814 -3.45278 23335 ft 403 kts 47°
2026-04-22 13:21 56.41748 -3.41595 23910 ft 406 kts 48°
2026-04-22 13:21 56.43722 -3.37923 24416 ft 409 kts 44°
2026-04-22 13:21 56.45961 -3.34698 24855 ft 413 kts 35°
2026-04-22 13:22 56.48349 -3.31766 25294 ft 416 kts 34°
2026-04-22 13:22 56.50751 -3.28809 25709 ft 419 kts 34°
2026-04-22 13:22 56.53169 -3.25825 26145 ft 421 kts 34°
2026-04-22 13:22 56.55597 -3.22815 26581 ft 424 kts 35°
2026-04-22 13:23 56.58035 -3.19780 27011 ft 426 kts 35°
2026-04-22 13:23 56.60486 -3.16727 27400 ft 429 kts 35°
2026-04-22 13:23 56.62952 -3.13651 27803 ft 431 kts 35°
2026-04-22 13:23 56.65399 -3.10593 28164 ft 434 kts 35°
2026-04-22 13:24 56.67895 -3.07475 28555 ft 436 kts 34°
2026-04-22 13:24 56.70523 -3.04704 28915 ft 439 kts 25°
2026-04-22 13:24 56.73325 -3.02445 29315 ft 441 kts 23°
2026-04-22 13:24 56.76143 -3.00200 29666 ft 443 kts 23°
2026-04-22 13:25 56.78980 -2.97934 30033 ft 445 kts 23°
2026-04-22 13:25 56.81822 -2.95652 30381 ft 448 kts 24°
2026-04-22 13:25 56.84685 -2.93348 30723 ft 449 kts 24°
2026-04-22 13:25 56.87553 -2.91035 30973 ft 452 kts 25°
2026-04-22 13:26 56.90443 -2.88699 31223 ft 455 kts 25°
2026-04-22 13:26 56.93345 -2.86350 31470 ft 456 kts 25°
2026-04-22 13:26 56.96228 -2.84012 31545 ft 461 kts 25°
2026-04-22 13:27 57.02189 -2.79171 31562 ft 474 kts 25°
2026-04-22 13:27 57.08285 -2.74208 31567 ft 483 kts 26°
2026-04-22 13:28 57.14452 -2.69159 31561 ft 486 kts 26°
2026-04-22 13:28 57.20599 -2.64135 31566 ft 486 kts 26°
2026-04-22 13:29 57.26783 -2.59064 31567 ft 486 kts 26°
2026-04-22 13:29 57.32974 -2.53954 31573 ft 486 kts 26°
2026-04-22 13:30 57.39154 -2.48815 31563 ft 487 kts 27°
2026-04-22 13:30 57.45339 -2.43666 31563 ft 487 kts 27°
2026-04-22 13:31 57.51525 -2.38486 31539 ft 488 kts 28°
2026-04-22 13:31 57.57689 -2.33324 31547 ft 489 kts 28°
2026-04-22 13:32 57.63907 -2.28094 31543 ft 490 kts 29°
2026-04-22 13:32 57.70143 -2.22824 31551 ft 491 kts 29°
2026-04-22 13:33 57.76373 -2.17527 31557 ft 492 kts 29°
2026-04-22 13:33 57.82570 -2.12237 31563 ft 492 kts 29°
2026-04-22 13:34 57.88811 -2.06896 31569 ft 493 kts 29°
2026-04-22 13:34 57.95062 -2.01550 31561 ft 493 kts 30°
2026-04-22 13:35 58.01297 -1.96183 31566 ft 492 kts 30°
2026-04-22 13:35 58.07535 -1.90777 31572 ft 493 kts 30°
2026-04-22 13:36 58.13772 -1.85369 31574 ft 492 kts 30°
2026-04-22 13:36 58.19946 -1.79979 31558 ft 491 kts 30°
2026-04-22 13:37 58.26138 -1.74558 31464 ft 488 kts 30°
2026-04-22 13:37 58.29206 -1.71863 31139 ft 484 kts 30°
2026-04-22 13:37 58.32252 -1.69181 30770 ft 481 kts 30°
2026-04-22 13:37 58.35277 -1.66513 30363 ft 478 kts 30°
2026-04-22 13:38 58.38384 -1.64180 29924 ft 481 kts 21°
2026-04-22 13:38 58.44988 -1.62151 29089 ft 483 kts 10°
2026-04-22 13:38 58.48357 -1.61409 28666 ft 479 kts 10°
2026-04-22 13:39 58.51620 -1.60695 28257 ft 477 kts 10°
2026-04-22 13:39 58.54904 -1.59969 27859 ft 474 kts 10°
2026-04-22 13:39 58.58170 -1.59235 27465 ft 471 kts 10°
2026-04-22 13:39 58.61419 -1.58491 27077 ft 469 kts 10°
2026-04-22 13:40 58.64654 -1.57743 26692 ft 467 kts 10°
2026-04-22 13:40 58.67875 -1.56995 26301 ft 464 kts
2026-04-22 13:40 58.71074 -1.56253 25802 ft 461 kts
2026-04-22 13:40 58.74254 -1.55526 25315 ft 458 kts
2026-04-22 13:41 58.77422 -1.54810 24833 ft 456 kts
2026-04-22 13:41 58.80559 -1.54097 24363 ft 453 kts
2026-04-22 13:41 58.83688 -1.53380 23844 ft 450 kts
2026-04-22 13:41 58.86783 -1.52671 23293 ft 446 kts
2026-04-22 13:42 58.89850 -1.51966 22752 ft 441 kts
2026-04-22 13:42 58.92886 -1.51266 22218 ft 437 kts
2026-04-22 13:42 58.95854 -1.50580 21694 ft 432 kts
2026-04-22 13:42 58.98824 -1.49891 21185 ft 428 kts
2026-04-22 13:43 59.01764 -1.49206 20681 ft 423 kts
2026-04-22 13:43 59.04679 -1.48523 20174 ft 419 kts
2026-04-22 13:43 59.07558 -1.47849 19685 ft 415 kts
2026-04-22 13:43 59.10411 -1.47182 19205 ft 411 kts
2026-04-22 13:44 59.13240 -1.46519 18711 ft 407 kts
2026-04-22 13:44 59.16037 -1.45863 18156 ft 403 kts
2026-04-22 13:44 59.18806 -1.45213 17627 ft 399 kts
2026-04-22 13:44 59.21553 -1.44567 17099 ft 395 kts
2026-04-22 13:45 59.24268 -1.43931 16580 ft 392 kts
2026-04-22 13:45 59.26915 -1.43307 16333 ft 381 kts
2026-04-22 13:45 59.29534 -1.42688 16201 ft 368 kts
2026-04-22 13:45 59.32000 -1.42106 16072 ft 356 kts
2026-04-22 13:46 59.34419 -1.41531 15941 ft 344 kts
2026-04-22 13:46 59.36763 -1.40971 15809 ft 334 kts
2026-04-22 13:46 59.39040 -1.40428 15642 ft 326 kts
2026-04-22 13:46 59.41278 -1.39896 15355 ft 322 kts
2026-04-22 13:47 59.43495 -1.39365 15036 ft 320 kts
2026-04-22 13:47 59.45699 -1.38833 14720 ft 318 kts
2026-04-22 13:47 59.47890 -1.38310 14398 ft 316 kts
2026-04-22 13:47 59.50039 -1.37802 14050 ft 314 kts
2026-04-22 13:48 59.52204 -1.37293 13697 ft 312 kts
2026-04-22 13:48 59.54344 -1.36712 13349 ft 310 kts 12°
2026-04-22 13:48 59.56380 -1.35366 12999 ft 308 kts 24°
2026-04-22 13:48 59.58329 -1.33662 12657 ft 305 kts 24°
2026-04-22 13:49 59.60250 -1.31992 12531 ft 295 kts 23°
2026-04-22 13:49 59.62080 -1.30396 12366 ft 278 kts 24°
2026-04-22 13:49 59.63819 -1.28876 11992 ft 270 kts 23°
2026-04-22 13:49 59.65501 -1.27401 11517 ft 266 kts 23°
2026-04-22 13:50 59.66645 -1.26396 11177 ft 264 kts 23°
2026-04-22 13:50 59.68883 -1.24635 10506 ft 259 kts
2026-04-22 13:50 59.70656 -1.24511 9951 ft 253 kts 353°
2026-04-22 13:50 59.72399 -1.24337 9365 ft 252 kts 20°
2026-04-22 13:51 59.73766 -1.22285 8807 ft 249 kts 58°
2026-04-22 13:51 59.74217 -1.19051 8219 ft 246 kts 94°
2026-04-22 13:51 59.74009 -1.15662 7575 ft 248 kts 99°
2026-04-22 13:51 59.73959 -1.12297 7116 ft 242 kts 80°
2026-04-22 13:52 59.74486 -1.09213 6720 ft 233 kts 59°
2026-04-22 13:52 59.75406 -1.06638 6339 ft 226 kts 46°
2026-04-22 13:52 59.76496 -1.04460 5955 ft 220 kts 39°
2026-04-22 13:52 59.77664 -1.02546 5568 ft 215 kts 36°
2026-04-22 13:53 59.78862 -1.00888 5178 ft 210 kts 31°
2026-04-22 13:53 59.80111 -0.99441 4789 ft 206 kts 26°
2026-04-22 13:53 59.81394 -0.98225 4398 ft 202 kts 22°
2026-04-22 13:53 59.82690 -0.97248 4068 ft 196 kts 18°
2026-04-22 13:54 59.83968 -0.96520 3834 ft 188 kts 13°
2026-04-22 13:54 59.85235 -0.96007 3535 ft 184 kts
2026-04-22 13:54 59.86485 -0.95705 3336 ft 176 kts
2026-04-22 13:54 59.87680 -0.96003 3139 ft 170 kts 342°
2026-04-22 13:55 59.88711 -0.97123 3058 ft 169 kts 321°
2026-04-22 13:55 59.89252 -0.98235 2993 ft 170 kts 308°
2026-04-22 13:55 59.89870 -1.01107 2795 ft 171 kts 281°
2026-04-22 13:55 59.89895 -1.02674 2657 ft 172 kts 266°
2026-04-22 13:56 59.89745 -1.05035 2438 ft 171 kts 265°
2026-04-22 13:56 59.89597 -1.07374 2203 ft 170 kts 265°
2026-04-22 13:56 59.89442 -1.09706 1964 ft 169 kts 265°
2026-04-22 13:56 59.89285 -1.12022 1724 ft 167 kts 264°
2026-04-22 13:57 59.89130 -1.14272 1492 ft 161 kts 264°
2026-04-22 13:57 59.88986 -1.16354 1288 ft 146 kts 264°
2026-04-22 13:57 59.88851 -1.18299 1089 ft 139 kts 265°
2026-04-22 13:57 59.88723 -1.20173 914 ft 136 kts 265°
2026-04-22 13:58 59.88591 -1.22033 739 ft 134 kts 265°
2026-04-22 13:58 59.88467 -1.23865 561 ft 132 kts 265°
2026-04-22 13:58 59.88356 -1.25673 334 ft 132 kts 266°
2026-04-22 13:58 59.88254 -1.27473 160 ft 130 kts 268°
2026-04-22 13:59 59.88158 -1.29235 46 ft 118 kts 263°
2026-04-22 13:59 59.88098 -1.30258 45 ft 30 kts 263°
2026-04-22 13:59 59.88080 -1.30560 45 ft 14 kts 262°
2026-04-22 13:59 59.88075 -1.30655 45 ft 3 kts 16°
2026-04-22 14:00 59.88084 -1.30577 45 ft 8 kts 88°
2026-04-22 14:00 59.88087 -1.30433 45 ft 12 kts 83°
2026-04-22 14:00 59.88099 -1.30237 45 ft 15 kts 84°
2026-04-22 14:00 59.88110 -1.30036 46 ft 13 kts 84°
2026-04-22 14:01 59.88059 -1.29859 44 ft 21 kts 144°
2026-04-22 14:01 59.87936 -1.29677 44 ft 21 kts 143°
2026-04-22 14:01 59.87821 -1.29508 45 ft 19 kts 143°
2026-04-22 14:01 59.87724 -1.29363 45 ft 17 kts 143°
2026-04-22 14:02 59.87631 -1.29228 45 ft 16 kts 144°
2026-04-22 14:02 59.87594 -1.29085 43 ft 9 kts 73°
2026-04-22 14:02 59.87615 -1.28987 44 ft 7 kts 41°
2026-04-22 14:02 59.87649 -1.29012 41 ft 6 kts 328°
2026-04-22 14:03 59.87679 -1.28986 42 ft 4 kts 67°
2026-04-22 14:03 59.87670 -1.28937 44 ft 3 kts 125°
2026-04-22 14:03 59.87659 -1.28901 44 ft 3 kts 116°
2026-04-22 14:03 59.87657 -1.28892 44 ft 0 kts 118°